Location: Shepherdstown, WV
(39.4326°N, 77.8042°W)
Time: 06:28:21
(UTC-04:00)

Vanguard 1 - Pass Details

Date: 05 August 2021
Orbit: 652 x 3831 km, 34.3° (Epoch: 24 September)

Event Time Altitude Azimuth Distance (km) Brightness Sun altitude
Rises 17:14:45 0° 265° (W) 4,261 14.4 34.0°
Reaches altitude 10° 17:18:21 10° 247° (WSW) 3,721 14.3 33.3°
Maximum altitude 17:24:42 19° 207° (SSW) 3,796 13.7 32.1°
Drops below altitude 10° 17:33:33 10° 170° (S) 5,405 13.9 30.4°
Sets 17:40:47 0° 156° (SSE) 7,047 14.2 29.0°
